GW0374 Weather Reports


time (UTC)temp
F
wind
direction
speed
knots
gust
knots
rain 1hr
in
rain 24hr
in
rain mn
in
humidity
%
barometer
mb
20260510210003 67 142 0.0 1.7 0.00 0.00 0.00 80 1014.6
20260510205503 67 270 0.0 1.7 0.00 0.00 0.00 80 1014.6
20260510205004 67 293 0.0 2.6 0.00 0.00 0.00 79 1014.6
20260510204503 68 290 0.0 2.6 0.00 0.00 0.00 77 1014.5
20260510204004 68 230 0.0 3.5 0.00 0.00 0.00 75 1014.4
20260510203504 68 232 0.9 5.2 0.00 0.00 0.00 75 1014.4
20260510203003 68 226 0.9 5.2 0.00 0.00 0.00 75 1014.4
20260510202503 69 219 1.7 7.0 0.00 0.00 0.00 74 1014.3
20260510202003 69 220 1.7 7.0 0.00 0.00 0.00 74 1014.1
20260510201524 69 222 1.7 5.2 0.00 0.00 0.00 74 1014.0
20260510201003 69 226 0.9 4.3 0.00 0.00 0.00 74 1013.9
20260510200503 69 225 0.9 5.2 0.00 0.00 0.00 72 1013.8
20260510200004 70 215 0.9 5.2 0.00 0.00 0.00 72 1013.6
20260510195503 70 160 0.9 6.1 0.00 0.00 0.00 72 1013.6
20260510195003 70 102 0.9 6.1 0.00 0.00 0.00 71 1013.5
20260510194503 70 164 0.9 5.2 0.00 0.00 0.00 71 1013.5
20260510194004 70 211 0.9 5.2 0.00 0.00 0.00 71 1013.5
20260510193504 70 221 1.7 5.2 0.00 0.00 0.00 71 1013.3
20260510193025 70 227 0.9 5.2 0.00 0.00 0.00 69 1013.2
20260510192503 71 247 0.9 4.3 0.00 0.00 0.00 69 1013.3
20260510192004 71 250 0.9 4.3 0.00 0.00 0.00 66 1013.3
20260510191503 72 228 0.9 5.2 0.00 0.00 0.00 65 1013.2
20260510191024 72 220 0.9 5.2 0.00 0.00 0.00 64 1013.1
20260510190524 73 198 0.9 4.3 0.00 0.00 0.00 62 1013.1
20260510190003 73 207 0.9 4.3 0.00 0.00 0.00 61 1012.9
20260510185503 74 169 0.9 4.3 0.00 0.00 0.00 58 1012.8
20260510185003 74 134 1.7 5.2 0.00 0.00 0.00 56 1012.7
20260510184525 75 132 1.7 5.2 0.00 0.00 0.00 55 1012.5
20260510184024 75 133 1.7 5.2 0.00 0.00 0.00 54 1012.6
20260510183503 75 127 0.0 2.6 0.00 0.00 0.00 54 1012.6
20260510183004 76 122 0.9 2.6 0.00 0.00 0.00 54 1012.7
20260510182524 76 140 1.7 6.1 0.00 0.00 0.00 54 1012.5
20260510182003 76 141 3.5 7.8 0.00 0.00 0.00 54 1012.4
20260510181503 76 139 5.2 7.8 0.00 0.00 0.00 54 1012.3
20260510181004 75 136 5.2 9.6 0.00 0.00 0.00 54 1012.3
20260510180524 75 135 7.0 13.9 0.00 0.00 0.00 54 1012.4
20260510180004 75 136 7.8 13.9 0.00 0.00 0.00 54 1012.3
20260510175525 75 136 7.8 13.0 0.00 0.00 0.00 54 1012.4
20260510175003 76 141 7.0 13.0 0.00 0.00 0.00 52 1012.4
20260510174503 76 143 7.8 14.8 0.00 0.00 0.00 52 1012.3
20260510174003 76 141 8.7 15.6 0.00 0.00 0.00 52 1012.2
20260510173503 76 139 9.6 15.6 0.00 0.00 0.00 52 1012.2
20260510173003 76 139 9.6 16.5 0.00 0.00 0.00 52 1012.1
20260510172503 76 142 10.4 16.5 0.00 0.00 0.00 52 1012.1
20260510172024 76 142 10.4 15.6 0.00 0.00 0.00 51 1012.3
20260510171503 77 142 10.4 17.4 0.00 0.00 0.00 51 1012.1
20260510171003 77 142 9.6 17.4 0.00 0.00 0.00 48 1012.0
20260510170503 77 138 11.3 19.1 0.00 0.00 0.00 50 1011.9
20260510170030 77 138 11.3 19.1 0.00 0.00 0.00 50 1012.0
20260510165506 77 139 11.3 20.0 0.00 0.00 0.00 51 1011.8
20260510165033 77 140 12.2 20.0 0.00 0.00 0.00 51 1012.0
20260510164503 77 141 12.2 18.2 0.00 0.00 0.00 51 1012.0
20260510164003 77 140 12.2 22.6 0.00 0.00 0.00 51 1012.1
20260510163503 77 138 13.0 22.6 0.00 0.00 0.00 50 1012.1
20260510163003 77 139 12.2 19.1 0.00 0.00 0.00 50 1012.2
20260510162524 77 141 12.2 19.1 0.00 0.00 0.00 50 1012.3
20260510162003 77 141 10.4 19.1 0.00 0.00 0.00 50 1012.1
20260510161504 77 139 12.2 21.7 0.00 0.00 0.00 50 1012.1
20260510161003 77 139 13.0 21.7 0.00 0.00 0.00 50 1012.2
20260510160524 77 137 12.2 22.6 0.00 0.00 0.00 50 1012.2
20260510160004 77 137 11.3 22.6 0.00 0.00 0.00 51 1012.3
20260510155504 78 138 10.4 19.1 0.00 0.00 0.00 50 1012.1
20260510155024 78 137 10.4 19.1 0.00 0.00 0.00 50 1012.1
20260510154524 78 134 9.6 19.1 0.00 0.00 0.00 51 1012.1
20260510154003 78 134 8.7 15.6 0.00 0.00 0.00 50 1012.2
20260510153503 78 136 8.7 14.8 0.00 0.00 0.00 51 1012.2
20260510153025 78 137 10.4 20.0 0.00 0.00 0.00 51 1012.4
20260510152503 78 135 11.3 20.0 0.00 0.00 0.00 51 1012.4
20260510152004 78 133 11.3 19.1 0.00 0.00 0.00 50 1012.5
20260510151503 78 135 11.3 20.0 0.00 0.00 0.00 50 1012.6
20260510151003 78 137 11.3 20.0 0.00 0.00 0.00 50 1012.5
20260510150504 79 139 10.4 20.0 0.00 0.00 0.00 50 1012.7
20260510150025 79 140 9.6 17.4 0.00 0.00 0.00 50 1012.6
20260510145503 79 139 9.6 18.2 0.00 0.00 0.00 50 1012.8
20260510145003 78 139 10.4 20.9 0.00 0.00 0.00 50 1012.8
20260510144503 79 133 9.6 20.9 0.00 0.00 0.00 50 1012.8
20260510144003 79 132 9.6 16.5 0.00 0.00 0.00 48 1012.8
20260510143504 79 137 9.6 17.4 0.00 0.00 0.00 48 1012.8
20260510143004 79 137 10.4 21.7 0.00 0.00 0.00 50 1012.9
20260510142503 78 138 10.4 21.7 0.00 0.00 0.00 50 1013.0
20260510142003 78 137 11.3 21.7 0.00 0.00 0.00 51 1013.0
20260510141504 78 136 11.3 21.7 0.00 0.00 0.00 51 1012.9
20260510141003 79 137 11.3 20.0 0.00 0.00 0.00 51 1013.0
20260510140503 79 136 11.3 20.9 0.00 0.00 0.00 50 1013.2
20260510140024 79 137 10.4 20.9 0.00 0.00 0.00 51 1013.1
20260510135503 79 136 12.2 20.0 0.00 0.00 0.00 50 1013.2
20260510135003 79 136 12.2 20.0 0.00 0.00 0.00 51 1013.3
20260510134503 79 138 11.3 17.4 0.00 0.00 0.00 50 1013.3
20260510134003 80 138 10.4 19.1 0.00 0.00 0.00 50 1013.5
20260510133503 80 137 8.7 22.6 0.00 0.00 0.00 48 1013.4
20260510133003 80 134 9.6 22.6 0.00 0.00 0.00 50 1013.4
20260510132524 80 135 10.4 19.1 0.00 0.00 0.00 50 1013.4
20260510132024 80 137 10.4 18.2 0.00 0.00 0.00 50 1013.6
20260510131503 80 135 9.6 18.2 0.00 0.00 0.00 51 1013.6
20260510131024 80 137 9.6 20.0 0.00 0.00 0.00 51 1013.6
20260510130504 79 139 11.3 21.7 0.00 0.00 0.00 50 1013.7
20260510130004 79 139 10.4 21.7 0.00 0.00 0.00 50 1013.7
20260510125504 79 137 9.6 19.1 0.00 0.00 0.00 51 1013.8
20260510125004 80 139 10.4 19.1 0.00 0.00 0.00 50 1013.9
20260510124504 79 139 11.3 19.1 0.00 0.00 0.00 51 1014.0
20260510124003 79 135 9.6 19.1 0.00 0.00 0.00 50 1013.9
20260510123503 79 137 10.4 18.2 0.00 0.00 0.00 52 1014.0
20260510123003 79 140 11.3 18.2 0.00 0.00 0.00 51 1014.1
20260510122503 80 138 7.8 16.5 0.00 0.00 0.00 50 1014.1
20260510122003 80 134 7.8 20.0 0.00 0.00 0.00 52 1014.1
20260510121504 79 138 11.3 20.0 0.00 0.00 0.00 51 1014.2
20260510121003 79 135 9.6 19.1 0.00 0.00 0.00 51 1014.2
20260510120503 80 137 7.8 15.6 0.00 0.00 0.00 52 1014.3
20260510120025 79 139 8.7 15.6 0.00 0.00 0.00 51 1014.3
20260510115503 80 137 8.7 15.6 0.00 0.00 0.00 51 1014.3
20260510115003 80 138 7.8 14.8 0.00 0.00 0.00 51 1014.3
20260510114503 80 136 6.1 13.9 0.00 0.00 0.00 51 1014.5
20260510114003 81 137 3.5 13.9 0.00 0.00 0.00 47 1014.5
20260510113503 80 137 3.5 10.4 0.00 0.00 0.00 50 1014.6
20260510113003 79 136 5.2 13.0 0.00 0.00 0.00 51 1014.7
20260510112504 79 137 7.0 13.0 0.00 0.00 0.00 52 1014.8
20260510112003 79 137 7.0 13.0 0.00 0.00 0.00 52 1014.9
20260510111503 79 132 5.2 13.0 0.00 0.00 0.00 51 1015.2
20260510111003 79 127 2.6 8.7 0.00 0.00 0.00 54 1015.3
20260510110503 78 131 2.6 10.4 0.00 0.00 0.00 54 1015.2
20260510110003 78 129 3.5 11.3 0.00 0.00 0.00 51 1015.3
20260510105524 79 142 2.6 11.3 0.00 0.00 0.00 51 1015.4
20260510105003 79 245 0.9 4.3 0.00 0.00 0.00 54 1015.4
20260510104504 79 260 0.9 3.5 0.00 0.00 0.00 54 1015.4
20260510104003 78 295 0.9 4.3 0.00 0.00 0.00 56 1015.5
20260510103504 77 293 1.7 8.7 0.00 0.00 0.00 58 1015.6
20260510103003 77 290 2.6 8.7 0.00 0.00 0.00 59 1015.6
20260510102503 77 302 0.9 5.2 0.00 0.00 0.00 59 1015.6
20260510102003 76 341 0.9 2.6 0.00 0.00 0.00 62 1015.7
20260510101503 76 30 0.9 2.6 0.00 0.00 0.00 62 1015.8
20260510101003 76 98 0.9 2.6 0.00 0.00 0.00 62 1015.8
20260510100503 76 51 0.9 3.5 0.00 0.00 0.00 64 1015.7
20260510100004 75 12 0.9 4.3 0.00 0.00 0.00 64 1015.9
20260510095503 74 23 0.9 4.3 0.00 0.00 0.00 66 1015.9
20260510095003 74 23 0.9 4.3 0.00 0.00 0.00 66 1015.8
20260510094504 74 353 0.9 4.3 0.00 0.00 0.00 66 1015.9
20260510094024 73 26 0.0 4.3 0.00 0.00 0.00 66 1016.0
20260510093503 73 43 0.9 4.3 0.00 0.00 0.00 68 1016.1
20260510093003 73 23 0.9 5.2 0.00 0.01 0.00 68 1016.1
20260510092503 73 353 0.9 5.2 0.00 0.02 0.00 69 1016.1
20260510092003 72 349 0.0 1.7 0.00 0.02 0.00 69 1016.2
20260510091524 72 340 0.9 3.5 0.00 0.02 0.00 71 1016.2
20260510091003 71 317 0.9 3.5 0.00 0.02 0.00 71 1016.3
20260510090525 71 305 0.9 2.6 0.00 0.02 0.00 72 1016.3
20260510090003 70 304 0.9 3.5 0.00 0.02 0.00 72 1016.3
20260510085503 70 310 0.0 3.5 0.00 0.02 0.00 72 1016.2
20260510085003 70 325 0.0 1.7 0.00 0.02 0.00 74 1016.3
20260510084504 69 72 0.0 1.7 0.00 0.02 0.00 75 1016.4
20260510084003 68 10 0.0 2.6 0.00 0.02 0.00 75 1016.7
20260510083503 68 38 0.9 2.6 0.00 0.02 0.00 77 1016.7
20260510083003 68 73 0.0 2.6 0.00 0.02 0.00 75 1016.7
20260510082503 68 268 0.0 1.7 0.00 0.02 0.00 75 1016.7
20260510082003 67 265 0.0 1.7 0.00 0.02 0.00 77 1016.7
20260510081503 66 276 0.0 2.6 0.00 0.02 0.00 77 1016.8
20260510081003 66 282 0.0 2.6 0.00 0.02 0.00 77 1016.9
20260510080504 66 316 0.0 2.6 0.00 0.02 0.00 77 1016.8
20260510080024 65 350 0.0 2.6 0.00 0.02 0.00 77 1016.8
20260510075503 64 331 0.0 2.6 0.00 0.02 0.00 79 1016.9
20260510075003 64 341 0.0 2.6 0.00 0.02 0.00 79 1016.7
20260510074503 64 29 0.0 2.6 0.00 0.02 0.00 79 1016.7
20260510074004 64 33 0.0 2.6 0.00 0.02 0.00 77 1016.7
20260510073503 63 88 0.0 0.9 0.00 0.02 0.00 80 1016.8
20260510073024 63 94 0.0 0.9 0.00 0.02 0.00 79 1016.8
20260510072504 63 0 0.0 0.9 0.00 0.02 0.00 79 1017.0
20260510072004 63 0 0.0 0.9 0.00 0.02 0.00 77 1017.0